This demonstration page uses our WeatherBlox Daily Observations layout. Learn more.

Left ArrowRight Arrow

31.84235, -102.49876

Hourly Observations for May 27, 2022

Temp ( °F °C ) Dew Point ( °F °C ) Humidity (%) Winds ( mph kmh ) Pressure ( in mb ) Visibility ( mi km ) Precip ( " mm )
12:53 am 00:53 Clear 74 23.3 38 3.3 27 27 ESE 8 13 29.93 1013 10 16 0.00 0.00
1:53 am 01:53 Clear 75 23.9 39 3.9 27 27 ESE 10 17 29.92 1013 10 16 0.00 0.00
2:53 am 02:53 Clear 74 23.3 40 4.4 29 29 ESE 10 17 29.92 1013 10 16 0.00 0.00
3:53 am 03:53 Clear 71 21.7 40 4.4 32 32 ESE 8 13 29.91 1013 10 16 0.00 0.00
4:53 am 04:53 Clear 70 21.1 40 4.4 34 34 SE 9 15 29.91 1013 10 16 0.00 0.00
5:53 am 05:53 Clear 68 20 42 5.6 39 39 ESE 9 15 29.92 1013 10 16 0.00 0.00
6:53 am 06:53 Sunny 67 19.4 44 6.7 44 44 ESE 8 13 29.94 1014 10 16 0.00 0.00
7:53 am 07:53 Sunny 69 20.6 44 6.7 41 41 ESE 10 17 29.96 1014 10 16 0.00 0.00
8:53 am 08:53 Sunny 73 22.8 50 10 44 44 SE 10 17 29.97 1015 10 16 0.00 0.00
9:53 am 09:53 Sunny 78 25.6 57 13.9 48 48 SSE 9 15 29.98 1015 10 16 0.00 0.00
10:53 am 10:53 Sunny 83 28.3 59 15 44 44 S 13 20 29.97 1015 10 16 0.00 0.00
11:53 am 11:53 Sunny 88 31.1 56 13.3 34 34 SSE 14 22 29.96 1015 10 16 0.00 0.00
12:53 pm 12:53 Sunny 92 33.3 50 10 24 24 S 16 26 29.93 1014 10 16 0.00 0.00
1:53 pm 13:53 Sunny 95 35 49 9.4 21 21 S 17 28 29.90 1013 10 16 0.00 0.00
2:53 pm 14:53 Sunny 97 36.1 46 7.8 17 17 S 18 30 29.87 1012 10 16 0.00 0.00
3:53 pm 15:53 Sunny 98 36.7 42 5.6 15 15 S 13 20 29.84 1011 10 16 0.00 0.00
4:53 pm 16:53 Sunny 98 36.7 42 5.6 15 15 S 15 24 29.81 1010 10 16 0.00 0.00
5:53 pm 17:53 Sunny 98 36.7 41 5 14 14 S 18 30 29.80 1009 10 16 0.00 0.00
6:53 pm 18:53 Sunny 98 36.7 39 3.9 13 13 S 16 26 29.78 1009 10 16 0.00 0.00
7:53 pm 19:53 Sunny 95 35 42 5.6 16 16 S 21 33 29.78 1008 10 16 0.00 0.00
8:53 pm 20:53 Clear 91 32.8 45 7.2 20 20 S 18 30 29.78 1009 10 16 0.00 0.00
9:53 pm 21:53 Clear 88 31.1 46 7.8 23 23 S 17 28 29.78 1009 10 16 0.00 0.00
10:53 pm 22:53 Clear 85 29.4 51 10.6 31 31 SSE 15 24 29.79 1009 10 16 0.00 0.00
11:53 pm 23:53 Clear 83 28.3 53 11.7 36 36 S 16 26 29.78 1009 10 16 0.00 0.00

Powered by AerisWeather